UAL646 KMCO-KIAD

Flight info

Callsign UAL646
Flight time N/A
Altitude 37000
Route FATHE4 VIYAP Q87 ALWZZ OGRAE BZNGA DORRN CAVLR6
Aircraft B38M/M-SDE1FGHILORVWXY/HB1

Departure

Time 2026-04-24 19:41
Airport Orlando International Airport (KMCO)

Arrival

Time N/A
Airport Washington Dulles International Airport (KIAD)
Time Latitude Longitude Altitude Speed Heading
2026-04-24 18:54 28.42617 -81.30009 97 ft 0 kts 240°
2026-04-24 19:23 28.42619 -81.30006 99 ft 2 kts 241°
2026-04-24 19:24 28.42628 -81.29987 96 ft 3 kts 242°
2026-04-24 19:24 28.42637 -81.29967 97 ft 3 kts 249°
2026-04-24 19:24 28.42641 -81.29945 97 ft 3 kts 268°
2026-04-24 19:24 28.42640 -81.29923 97 ft 3 kts 281°
2026-04-24 19:25 28.42636 -81.29901 97 ft 3 kts 281°
2026-04-24 19:25 28.42630 -81.29884 98 ft 3 kts 325°
2026-04-24 19:25 28.42614 -81.29880 97 ft 3 kts
2026-04-24 19:25 28.42598 -81.29881 96 ft 1 kts 360°
2026-04-24 19:26 28.42592 -81.29881 96 ft 0 kts 360°
2026-04-24 19:30 28.42596 -81.29881 96 ft 2 kts 360°
2026-04-24 19:30 28.42616 -81.29881 97 ft 4 kts 360°
2026-04-24 19:31 28.42654 -81.29882 99 ft 7 kts 360°
2026-04-24 19:31 28.42664 -81.29882 99 ft 7 kts 360°
2026-04-24 19:32 28.42671 -81.29882 99 ft 8 kts 360°
2026-04-24 19:32 28.42733 -81.29882 98 ft 10 kts 360°
2026-04-24 19:32 28.42813 -81.29882 99 ft 13 kts 360°
2026-04-24 19:32 28.42884 -81.29882 98 ft 6 kts
2026-04-24 19:33 28.42912 -81.29847 98 ft 7 kts 83°
2026-04-24 19:33 28.42914 -81.29780 97 ft 10 kts 90°
2026-04-24 19:33 28.42937 -81.29709 98 ft 10 kts 31°
2026-04-24 19:33 28.43016 -81.29708 99 ft 13 kts 354°
2026-04-24 19:34 28.43113 -81.29716 99 ft 15 kts
2026-04-24 19:34 28.43225 -81.29713 98 ft 17 kts
2026-04-24 19:34 28.43352 -81.29711 100 ft 19 kts
2026-04-24 19:34 28.43451 -81.29708 99 ft 7 kts
2026-04-24 19:35 28.43508 -81.29709 99 ft 8 kts 359°
2026-04-24 19:35 28.43551 -81.29687 100 ft 5 kts 63°
2026-04-24 19:35 28.43552 -81.29662 100 ft 4 kts 91°
2026-04-24 19:35 28.43551 -81.29628 102 ft 5 kts 91°
2026-04-24 19:36 28.43550 -81.29585 102 ft 6 kts 91°
2026-04-24 19:36 28.43551 -81.29526 101 ft 9 kts 88°
2026-04-24 19:36 28.43553 -81.29447 102 ft 11 kts 88°
2026-04-24 19:36 28.43555 -81.29346 99 ft 14 kts 88°
2026-04-24 19:37 28.43563 -81.29281 101 ft 5 kts 56°
2026-04-24 19:37 28.43594 -81.29264 101 ft 6 kts
2026-04-24 19:37 28.43662 -81.29262 101 ft 13 kts 359°
2026-04-24 19:37 28.43768 -81.29264 101 ft 17 kts 360°
2026-04-24 19:38 28.43863 -81.29236 99 ft 15 kts 54°
2026-04-24 19:38 28.43872 -81.29186 102 ft 0 kts 90°
2026-04-24 19:38 28.43871 -81.29175 102 ft 6 kts 91°
2026-04-24 19:38 28.43871 -81.29092 108 ft 17 kts 90°
2026-04-24 19:39 28.43872 -81.28977 110 ft 12 kts 90°
2026-04-24 19:39 28.43872 -81.28880 111 ft 14 kts 90°
2026-04-24 19:39 28.43873 -81.28741 108 ft 20 kts 89°
2026-04-24 19:39 28.43874 -81.28557 103 ft 25 kts 90°
2026-04-24 19:40 28.43873 -81.28368 99 ft 16 kts 98°
2026-04-24 19:40 28.43819 -81.28267 102 ft 16 kts 136°
2026-04-24 19:40 28.43725 -81.28249 102 ft 17 kts 182°
2026-04-24 19:40 28.43469 -81.28249 98 ft 74 kts 179°
2026-04-24 19:41 28.42668 -81.28233 101 ft 153 kts 180°
2026-04-24 19:41 28.41459 -81.28203 578 ft 181 kts 174°
2026-04-24 19:41 28.40225 -81.28124 1773 ft 172 kts 178°
2026-04-24 19:41 28.39016 -81.28071 2603 ft 183 kts 178°
2026-04-24 19:42 28.37684 -81.27880 3139 ft 204 kts 164°
2026-04-24 19:42 28.36258 -81.27347 3660 ft 226 kts 161°
2026-04-24 19:42 28.34788 -81.26530 4114 ft 248 kts 141°
2026-04-24 19:42 28.33568 -81.25149 4993 ft 247 kts 134°
2026-04-24 19:43 28.32382 -81.23710 5785 ft 252 kts 134°
2026-04-24 19:43 28.31174 -81.22245 6585 ft 256 kts 134°
2026-04-24 19:43 28.29945 -81.20752 7336 ft 261 kts 134°
2026-04-24 19:43 28.29015 -81.18983 8073 ft 267 kts 103°
2026-04-24 19:44 28.29121 -81.16915 9031 ft 267 kts 68°
2026-04-24 19:44 28.30162 -81.15141 9726 ft 279 kts 41°
2026-04-24 19:44 28.31853 -81.13976 10221 ft 295 kts 14°
2026-04-24 19:44 28.33923 -81.13892 10710 ft 308 kts 346°
2026-04-24 19:45 28.36058 -81.14480 11212 ft 324 kts 346°
2026-04-24 19:45 28.38298 -81.15017 11928 ft 332 kts 346°
2026-04-24 19:45 28.40556 -81.15566 12875 ft 333 kts 346°
2026-04-24 19:45 28.42838 -81.16125 13720 ft 338 kts 346°
2026-04-24 19:46 28.45147 -81.16691 14508 ft 341 kts 345°
2026-04-24 19:46 28.47477 -81.17265 15297 ft 344 kts 345°
2026-04-24 19:46 28.49828 -81.17845 16065 ft 348 kts 345°
2026-04-24 19:46 28.52210 -81.18432 16805 ft 351 kts 345°
2026-04-24 19:47 28.54610 -81.19025 17543 ft 354 kts 345°
2026-04-24 19:47 28.57003 -81.19616 18259 ft 358 kts 345°
2026-04-24 19:47 28.59446 -81.20220 18873 ft 361 kts 345°
2026-04-24 19:47 28.61921 -81.20835 19485 ft 365 kts 345°
2026-04-24 19:48 28.64411 -81.21453 20083 ft 368 kts 345°
2026-04-24 19:48 28.66924 -81.22077 20672 ft 372 kts 345°
2026-04-24 19:48 28.72030 -81.23348 21832 ft 379 kts 345°
2026-04-24 19:49 28.77234 -81.24645 22956 ft 386 kts 345°
2026-04-24 19:49 28.82532 -81.25969 23976 ft 393 kts 345°
2026-04-24 19:50 28.90623 -81.27996 25368 ft 401 kts 345°
2026-04-24 19:50 28.93355 -81.28682 25795 ft 404 kts 345°
2026-04-24 19:51 28.98895 -81.30048 26662 ft 411 kts 349°
2026-04-24 19:51 29.01770 -81.30272 27108 ft 415 kts 354°
2026-04-24 19:52 29.07541 -81.30608 27979 ft 421 kts 354°
2026-04-24 19:52 29.10476 -81.30780 28405 ft 423 kts 354°
2026-04-24 19:52 29.13427 -81.30952 28816 ft 425 kts 354°
2026-04-24 19:52 29.16391 -81.31125 29218 ft 428 kts 354°
2026-04-24 19:53 29.19373 -81.31299 29614 ft 430 kts 354°
2026-04-24 19:53 29.22374 -81.31474 30006 ft 433 kts 354°
2026-04-24 19:53 29.28422 -81.31828 30651 ft 439 kts 354°
2026-04-24 19:54 29.30452 -81.31946 30845 ft 441 kts 354°
2026-04-24 19:54 29.33520 -81.32126 31150 ft 443 kts 354°
2026-04-24 19:54 29.36607 -81.32307 31457 ft 446 kts 354°
2026-04-24 19:54 29.39718 -81.32489 31755 ft 448 kts 354°
2026-04-24 19:55 29.41785 -81.32610 31948 ft 450 kts 354°
2026-04-24 19:55 29.45983 -81.32856 32333 ft 453 kts 354°
2026-04-24 19:55 29.49143 -81.33041 32684 ft 454 kts 354°
2026-04-24 19:55 29.52296 -81.33226 33088 ft 454 kts 354°
2026-04-24 19:56 29.55452 -81.33411 33486 ft 454 kts 354°
2026-04-24 19:56 29.58616 -81.33598 33856 ft 455 kts 354°
2026-04-24 19:56 29.61775 -81.33783 34209 ft 454 kts 354°
2026-04-24 19:56 29.64935 -81.33969 34565 ft 453 kts 354°
2026-04-24 19:57 29.68043 -81.34152 34930 ft 452 kts 354°
2026-04-24 19:57 29.71192 -81.34338 35287 ft 451 kts 354°
2026-04-24 19:57 29.74320 -81.34522 35626 ft 450 kts 354°
2026-04-24 19:57 29.77446 -81.34707 35967 ft 449 kts 354°
2026-04-24 19:58 29.80567 -81.34891 36288 ft 448 kts 354°
2026-04-24 19:58 29.83674 -81.35075 36614 ft 447 kts 354°
2026-04-24 19:58 29.86788 -81.35259 36869 ft 448 kts 354°
2026-04-24 19:58 29.89903 -81.35443 37021 ft 449 kts 354°
2026-04-24 19:59 29.93018 -81.35627 37012 ft 448 kts 354°
2026-04-24 19:59 29.99217 -81.35994 37013 ft 446 kts 354°
2026-04-24 20:00 30.05419 -81.36362 37005 ft 446 kts 354°
2026-04-24 20:00 30.11618 -81.36730 37013 ft 446 kts 354°
2026-04-24 20:01 30.17831 -81.37098 36994 ft 448 kts 355°
2026-04-24 20:01 30.24055 -81.37470 36972 ft 448 kts 355°
2026-04-24 20:02 30.30287 -81.37842 36980 ft 448 kts 355°
2026-04-24 20:02 30.36512 -81.38214 36981 ft 448 kts 355°
2026-04-24 20:03 30.42739 -81.38586 36982 ft 455 kts 355°
2026-04-24 20:03 30.49075 -81.38965 36980 ft 456 kts 355°
2026-04-24 20:04 30.55421 -81.39345 36989 ft 456 kts 355°
2026-04-24 20:04 30.61769 -81.39726 36990 ft 456 kts 355°
2026-04-24 20:05 30.68110 -81.40106 36992 ft 456 kts 355°
2026-04-24 20:05 30.74454 -81.40488 36988 ft 457 kts 355°
2026-04-24 20:06 30.80813 -81.40871 36978 ft 457 kts 355°
2026-04-24 20:06 30.87126 -81.41252 36978 ft 457 kts 355°
2026-04-24 20:07 30.92412 -81.41571 36977 ft 450 kts 355°
2026-04-24 20:07 30.99657 -81.42009 36947 ft 448 kts 355°
2026-04-24 20:08 31.05898 -81.42387 36966 ft 449 kts 355°
2026-04-24 20:08 31.12134 -81.42765 36963 ft 449 kts 355°
2026-04-24 20:09 31.18367 -81.43143 36964 ft 449 kts 355°
2026-04-24 20:09 31.24603 -81.43197 36969 ft 451 kts
2026-04-24 20:09 31.27600 -81.42096 36987 ft 453 kts 22°
2026-04-24 20:10 31.30495 -81.40604 36964 ft 456 kts 22°
2026-04-24 20:10 31.36283 -81.37560 36985 ft 457 kts 22°
2026-04-24 20:11 31.42049 -81.34446 36982 ft 456 kts 23°
2026-04-24 20:11 31.47776 -81.31336 36975 ft 456 kts 23°
2026-04-24 20:12 31.53538 -81.28202 36968 ft 456 kts 23°
2026-04-24 20:12 31.59303 -81.25062 36965 ft 457 kts 23°
2026-04-24 20:13 31.65078 -81.21912 36967 ft 457 kts 23°
2026-04-24 20:13 31.70854 -81.18758 36950 ft 457 kts 23°
2026-04-24 20:14 31.76621 -81.15604 36951 ft 457 kts 23°
2026-04-24 20:14 31.82397 -81.12440 36941 ft 457 kts 23°
2026-04-24 20:15 31.88166 -81.09277 36943 ft 457 kts 23°
2026-04-24 20:15 31.93896 -81.06129 36954 ft 457 kts 23°
2026-04-24 20:16 31.99667 -81.02950 36931 ft 457 kts 24°
2026-04-24 20:16 32.05421 -80.99732 36934 ft 457 kts 24°
2026-04-24 20:17 32.11156 -80.96525 36933 ft 456 kts 23°
2026-04-24 20:17 32.19764 -80.91702 36970 ft 456 kts 23°
2026-04-24 20:18 32.25470 -80.88500 36974 ft 457 kts 24°
2026-04-24 20:18 32.31223 -80.85267 36980 ft 457 kts 23°
2026-04-24 20:19 32.36971 -80.82031 36962 ft 459 kts 24°
2026-04-24 20:19 32.42796 -80.78749 36960 ft 467 kts 24°
2026-04-24 20:20 32.48675 -80.75430 36961 ft 468 kts 24°
2026-04-24 20:20 32.54518 -80.72128 36961 ft 468 kts 24°
2026-04-24 20:21 32.60386 -80.68806 36960 ft 467 kts 24°
2026-04-24 20:21 32.66252 -80.65481 36958 ft 467 kts 24°
2026-04-24 20:22 32.72103 -80.62111 36947 ft 468 kts 25°
2026-04-24 20:22 32.77928 -80.58646 36947 ft 468 kts 25°
2026-04-24 20:23 32.83752 -80.55188 36941 ft 467 kts 25°
2026-04-24 20:23 32.89566 -80.51733 36937 ft 467 kts 25°
2026-04-24 20:24 32.95352 -80.48288 36924 ft 468 kts 25°
2026-04-24 20:24 33.01169 -80.44820 36931 ft 468 kts 25°
2026-04-24 20:25 33.06981 -80.41350 36932 ft 467 kts 25°
2026-04-24 20:25 33.12801 -80.37870 36936 ft 468 kts 25°
2026-04-24 20:26 33.18619 -80.34386 36935 ft 468 kts 25°
2026-04-24 20:26 33.24436 -80.30897 36928 ft 467 kts 25°
2026-04-24 20:27 33.30251 -80.27405 36936 ft 468 kts 25°
2026-04-24 20:27 33.36065 -80.23907 36921 ft 467 kts 25°
2026-04-24 20:28 33.41832 -80.20433 36922 ft 467 kts 25°
2026-04-24 20:28 33.47637 -80.16931 36924 ft 467 kts 25°
2026-04-24 20:29 33.53442 -80.13423 36927 ft 467 kts 25°
2026-04-24 20:29 33.59250 -80.09909 36927 ft 467 kts 25°
2026-04-24 20:30 33.65054 -80.06390 36923 ft 467 kts 25°
2026-04-24 20:30 33.70857 -80.02866 36912 ft 467 kts 25°
2026-04-24 20:31 33.76629 -79.99356 36904 ft 467 kts 25°
2026-04-24 20:31 33.82460 -79.95804 36918 ft 467 kts 25°
2026-04-24 20:32 33.88213 -79.92295 36912 ft 466 kts 25°
2026-04-24 20:32 33.94000 -79.88759 36910 ft 466 kts 25°
2026-04-24 20:33 33.99786 -79.85218 36911 ft 467 kts 25°
2026-04-24 20:33 34.05572 -79.81673 36921 ft 466 kts 25°
2026-04-24 20:34 34.11362 -79.78119 36915 ft 466 kts 25°
2026-04-24 20:34 34.17148 -79.74563 36916 ft 466 kts 25°
2026-04-24 20:35 34.22935 -79.70999 36915 ft 466 kts 25°
2026-04-24 20:35 34.28678 -79.67458 36905 ft 466 kts 25°
2026-04-24 20:36 34.34457 -79.63889 36894 ft 465 kts 25°
2026-04-24 20:36 34.40220 -79.60324 36906 ft 465 kts 25°
2026-04-24 20:37 34.45985 -79.56752 36896 ft 465 kts 25°
2026-04-24 20:37 34.51752 -79.53174 36898 ft 465 kts 25°
2026-04-24 20:38 34.57460 -79.49468 36897 ft 465 kts 27°
2026-04-24 20:38 34.63126 -79.45676 36896 ft 465 kts 26°
2026-04-24 20:39 34.68804 -79.41921 36900 ft 464 kts 22°
2026-04-24 20:39 34.71841 -79.40737 36885 ft 454 kts
2026-04-24 20:39 34.74930 -79.40065 36890 ft 449 kts
2026-04-24 20:40 34.81049 -79.38695 36909 ft 447 kts
2026-04-24 20:40 34.86134 -79.37603 36897 ft 446 kts
2026-04-24 20:41 34.92250 -79.36297 36895 ft 446 kts
2026-04-24 20:41 34.98370 -79.34990 36857 ft 446 kts
2026-04-24 20:42 35.04488 -79.33682 36864 ft 446 kts
2026-04-24 20:42 35.10593 -79.32374 36855 ft 444 kts
2026-04-24 20:43 35.16685 -79.31067 36909 ft 445 kts
2026-04-24 20:43 35.22784 -79.29756 36905 ft 445 kts
2026-04-24 20:44 35.28876 -79.28445 36917 ft 445 kts
2026-04-24 20:44 35.34954 -79.27135 36897 ft 442 kts
2026-04-24 20:45 35.41016 -79.25826 36897 ft 443 kts
2026-04-24 20:45 35.47047 -79.24522 36880 ft 443 kts
2026-04-24 20:46 35.53118 -79.23208 36880 ft 442 kts
2026-04-24 20:46 35.59186 -79.21892 36880 ft 442 kts
2026-04-24 20:47 35.65252 -79.20574 36878 ft 442 kts
2026-04-24 20:47 35.71314 -79.19252 36877 ft 443 kts
2026-04-24 20:48 35.74250 -79.18102 36856 ft 447 kts 24°
2026-04-24 20:48 35.76863 -79.15994 36898 ft 451 kts 36°
2026-04-24 20:48 35.81764 -79.11165 36866 ft 450 kts 36°
2026-04-24 20:49 35.86615 -79.06258 36877 ft 451 kts 37°
2026-04-24 20:49 35.91457 -79.01313 36878 ft 452 kts 36°
2026-04-24 20:50 35.96278 -78.96376 36877 ft 452 kts 36°
2026-04-24 20:50 36.01118 -78.91410 36885 ft 451 kts 37°
2026-04-24 20:51 36.05931 -78.86465 36873 ft 449 kts 37°
2026-04-24 20:51 36.10740 -78.81516 36884 ft 449 kts 37°
2026-04-24 20:52 36.15540 -78.76566 36879 ft 449 kts 37°
2026-04-24 20:52 36.20339 -78.71612 36868 ft 449 kts 37°
2026-04-24 20:53 36.25099 -78.66689 36872 ft 446 kts 37°
2026-04-24 20:53 36.29865 -78.61750 36864 ft 446 kts 37°
2026-04-24 20:54 36.34631 -78.56804 36866 ft 446 kts 37°
2026-04-24 20:54 36.39391 -78.51858 36855 ft 446 kts 37°
2026-04-24 20:55 36.41895 -78.49626 36834 ft 440 kts 23°
2026-04-24 20:55 36.44649 -78.48116 36879 ft 438 kts 21°
2026-04-24 20:55 36.50228 -78.45054 36869 ft 438 kts 20°
2026-04-24 20:56 36.55831 -78.42049 36865 ft 438 kts 20°
2026-04-24 20:56 36.61436 -78.39055 36854 ft 438 kts 20°
2026-04-24 20:57 36.67039 -78.36058 36858 ft 438 kts 20°
2026-04-24 20:57 36.72598 -78.33080 36844 ft 434 kts 20°
2026-04-24 20:58 36.78135 -78.30108 36778 ft 429 kts 20°
2026-04-24 20:58 36.80856 -78.28646 36353 ft 423 kts 20°
2026-04-24 20:58 36.83542 -78.27202 35952 ft 417 kts 20°
2026-04-24 20:59 36.86192 -78.25776 35524 ft 413 kts 20°
2026-04-24 20:59 36.88822 -78.24360 35040 ft 410 kts 20°
2026-04-24 20:59 36.91440 -78.22949 34568 ft 409 kts 20°
2026-04-24 20:59 36.94047 -78.21543 34064 ft 407 kts 20°
2026-04-24 21:00 36.96648 -78.20140 33532 ft 406 kts 20°
2026-04-24 21:00 36.99235 -78.18744 33027 ft 403 kts 21°
2026-04-24 21:00 37.01801 -78.17357 32565 ft 400 kts 21°
2026-04-24 21:00 37.04348 -78.15978 32111 ft 397 kts 21°
2026-04-24 21:01 37.06877 -78.14610 31660 ft 395 kts 21°
2026-04-24 21:01 37.09356 -78.13268 31221 ft 392 kts 21°
2026-04-24 21:01 37.11854 -78.11913 30786 ft 390 kts 21°
2026-04-24 21:01 37.14342 -78.10564 30343 ft 388 kts 21°
2026-04-24 21:02 37.16820 -78.09219 29904 ft 386 kts 21°
2026-04-24 21:02 37.19280 -78.07883 29410 ft 384 kts 21°
2026-04-24 21:02 37.21719 -78.06557 28974 ft 381 kts 21°
2026-04-24 21:02 37.24140 -78.05241 28562 ft 377 kts 21°
2026-04-24 21:03 37.26536 -78.03937 28149 ft 374 kts 21°
2026-04-24 21:03 37.28910 -78.02643 27753 ft 370 kts 21°
2026-04-24 21:03 37.31272 -78.01356 27368 ft 367 kts 21°